RS30S (SXC3-217 SIREN) (53384 NORAD) Tracking and Keplerian Element Data

This shows tracking and keplerian element data for the satellite.

Feedback or suggestion? Click here.




ElementValue
Catalog53384
NameRS30S (SXC3-217 SIREN)
Epoch Orbit1584
Epoch Day325.20223946
Epoch Year2022
RAAN226.0562
Inclination97.4279
Eccentricity0.0006488
Argument of Perigee80.7062
Mean Anonmoly71.4674
Mean Motion15.2710269
Decay Rate8.291E-05
L11 53384U 22096Q 22325.20223946 .00008291 00000+0 31446-3 0 9994
L22 53384 97.4279 226.0562 0006488 80.7062 71.4674 15.27102690 15845



Live tracking and technical data element details for RS30S (SXC3-217 SIREN) (NORAD 53384). RS30S (SXC3-217 SIREN) can be tracked NOW for your location showing map with azimuth and elevation plus other details from your city location.







IsCatalogInMostPopularTable: catalog: 53384, numindb: 5
Update: records affected: 1



GetName: 53384 RS30S (SXC3-217 SIREN)

Hit Count: updated at: Tue, 29 Nov 2022 01:43:49 GMT